Home > Weather > Black Mountain > Past weeks

Flag for U.S.A. Weather for the Past 2 Weeks in Black Mountain, North Carolina, U.S.A.

Now
25 °F

Mostly cloudy.


Feels Like: 13 °F
Forecast: 21 / 28 °F
Wind: 15 mph from North

Location: Asheville Regional Airport

Current Time: Feb 9, 2016 at 6:33:50 PM

Latest Report: Feb 9, 2016 at 5:54 PM


Visibility: 10 mi

Pressure: 29.81 "Hg (27.17 "Hg at 729m altitude)

Humidity: 60%

Dew point: 13 °F

Location of Black MountainLocation

Historic Weather in Black Mountain — Graph

°F

Black Mountain Temperature Yesterday

Maximum temperature yesterday: 46 °F (at 2:54 PM)
Minimum temperature yesterday: 27 °F (at 5:54 AM)
Average temperature yesterday: 35 °F

High & Low Weather Summary for the Past Weeks

 TemperatureHumidityPressure
High66 °F (Feb 1, 12:54 PM)97% (Jan 26, 8:54 PM)30.43 "Hg (Jan 26, 8:54 PM)
Low23 °F (Feb 6, 6:54 AM)19% (Feb 6, 3:54 PM)29.62 "Hg (Feb 8, 2:54 PM)
Average41 °F66%30.03 "Hg
* Reported Jan 25 4:54 PM — Feb 9 4:54 PM, Black Mountain, Weather by CustomWeather, © 2016

Note: Actual official high and low records may vary slightly from our data, if they occured in-between our weather recording intervals... More about our weather records

Advertising

Black Mountain Weather History for the Previous 24 Hours

 ConditionsComfort  
Time TempWeatherWind HumidityBarometerVisibility
4:54 PM
Tue, Feb 9
25 °FMostly cloudy.13 mph60%29.77 "Hg10 mi
3:54 PM28 °FOvercast.9 mph49%29.74 "Hg10 mi
2:54 PM27 °FOvercast.10 mph51%29.72 "Hg10 mi
1:54 PM28 °FOvercast.13 mph45%29.70 "Hg10 mi
12:54 PM28 °FMostly cloudy.13 mph45%29.71 "Hg10 mi
11:54 AM29 °FLight snow. Overcast.10 mph47%29.72 "Hg9 mi
10:54 AM27 °FLight snow. More clouds than sun.12 mph55%29.73 "Hg9 mi
9:54 AM26 °FLight snow. Mostly cloudy.13 mph60%29.72 "Hg9 mi
8:54 AM26 °FLight snow. Overcast.8 mph55%29.72 "Hg9 mi
7:54 AM26 °FLight snow. Overcast.9 mph63%29.70 "Hg9 mi
6:54 AM26 °FLight snow. Mostly cloudy.9 mph69%29.70 "Hg9 mi
5:54 AM25 °FLight snow. Overcast.7 mph78%29.69 "Hg6 mi
4:54 AM26 °FLight snow. Overcast.15 mph74%29.66 "Hg9 mi
3:54 AM26 °FLight snow. Passing clouds.8 mph74%29.66 "Hg9 mi
2:54 AM27 °FLight snow. Passing clouds.12 mph72%29.66 "Hg9 mi
1:54 AM30 °FLight snow. Passing clouds.12 mph49%29.65 "Hg9 mi
12:54 AM32 °FLight snow. Overcast.12 mph64%29.65 "Hg9 mi
11:54 PM
Mon, Feb 8
32 °FLight snow. Mostly cloudy.10 mph73%29.65 "Hg8 mi
10:54 PM33 °FLight snow. Overcast.8 mph66%29.66 "Hg9 mi
9:54 PM33 °FLight snow. Passing clouds.8 mph72%29.68 "Hg9 mi
8:54 PM33 °FLight snow. Passing clouds.7 mph75%29.70 "Hg9 mi
7:54 PM35 °FLight snow. Partly cloudy.13 mph72%29.69 "Hg9 mi
6:54 PM36 °FLight snow. Passing clouds.9 mph73%29.70 "Hg9 mi
Weather by CustomWeather, © 2016

See weather overviewHow to use our weather pages